World > North America > United States > New York

Hourly Osceola, NY Regional Weather

Feedback E-mail the Weather

Latest News

Osceola, NY Weather Maps

°F °C°F °C
Osceola Weather Map
UTC Time: 5/23/2022, 03:25
Your Time:

Osceola, NY Regional Weather

Expires:202205230400;;422775
ASUS41 KBGM 230310
RWRBGM

REGIONAL WEATHER ROUNDUP
NATIONAL WEATHER SERVICE BINGHAMTON NY
1100 PM EDT SUN MAY 22 2022

Note: "fair" indicates few or no clouds below 12,000 feet with no
significant weather and/or obstructions to visibility.

* = Station(s) that does not report precipitation, such as rain, 
snow, etc, also no thunder or fog.


NYZ009-015>018-022>025-036-037-044>046-055>057-062-230400
...Central New York...
  
CITY           SKY/WX    TMP DP  RH WIND       PRES   REMARKS
Binghamton     PTCLDY    50  47  89 N8        30.21R                  
Cortland       CLOUDY    52  46  82 W5        30.23R                  
Dansville      CLOUDY    55  50  83 CALM      30.25S                  
Elmira         CLEAR     54  45  71 NW3       30.23R                  
Endicott       MOCLDY    55  48  76 N5        30.22R                  
Ithaca         CLOUDY    52  50  93 NW7       30.23R                  
Hamilton       CLOUDY    52  48  87 NW5       30.21R                  
Monticello     CLOUDY    60  58  92 NW8       30.14R                  
Norwich        CLOUDY    54  46  76 N9G23     30.23R                  
Oneonta        MOCLDY    52  50  93 CALM      30.20R                  
Penn Yan       PTCLDY    53  46  77 W5        30.23S                  
Rome           MOCLDY    54  50  86 W13       30.21R                  
Seneca Falls   CLEAR     52  48  87 NW5       30.24S                  
Sidney         MOCLDY    54  50  87 NW3       30.21R                  
Skaneateles    FAIR      52  52 100 W7        30.22S                  
Syracuse       MOCLDY    52  48  86 W7        30.22R                  
$$
 

SKY/WX - Weather  TMP - Temperature  DP - Dew Point  RH - Humidity
WIND - Wind Direction/Speed PRES - Barometric Pressure VSB - Visibility
WCI - Wind Chill Index E13G22 Wind - East Wind 13 mph/Gusts of 22 mph

Trending Headlines

Osceola Radar Loop



Osceola Quick Facts


National Two Day Weather Forecast


E-mail the Osceola Weather Forecast

Voice your opinion or tell us about page issues...